Погода в Нижнем Тагиле

Россия / Свердловская область     57°54′27″N   59°58′19″E
темп.,
°C
ветер,
м/с
пор.,
м/с
влажн.,
%
обл.,
%
осадки,
мм/ч
давл.,
гПа
погр.,
м
11 апреля, вс
вс1123:00+3ссв00100100 0.0 103217
02:00+4ю26100100 0.0 1030157
05:00+3ю2796100 0.0 1030111
08:00+7ююз31486100 0.0 1029445
11:00+10юз41475100 0.0 1029629
14:00+10юз51477100 0.1 1029717
17:00+10юз41278100 0.1 1029733
20:00+8зюз41286100 0.1 1031706
12 апреля, пн
пн1223:00+6з3993100 0.1 1032458
02:00+5зсз2797100 0.0 1033399
05:00+3з2493100 0.0 103597
08:00+4зсз2483100 0.0 1036159
11:00+8сз3469100 0.0 1037615
14:00+9ссз3451100 0.0 1038866
17:00+9ссз2247100 0.0 1038810
20:00+5ссз11721 0.0 103910
13 апреля, вт
вт1323:00+3сз00795 0.0 104010
02:00+1ююз11825 0.0 103910
05:00+1ююз11835 0.0 103911
08:00+4ююз23754 0.0 1038115
11:00+10ююз24640 0.0 1036514
14:00+15юз355920 0.0 10341127
17:00+16зюз35565 0.0 10321327
20:00+11зюз2283100 0.0 103119
14 апреля, ср
ср1423:00+9юз279178 0.0 1031118
02:00+8юз289191 0.0 1030170
05:00+7юз2891100 0.0 1029157
08:00+9зюз3107651 0.0 1028376
11:00+14зюз474550 0.0 1026807
14:00+16зюз573432 0.0 10251272
17:00+16зюз58360 0.0 10231363
20:00+11зюз36574 0.0 1022111
15 апреля, чт
чт1523:00+8юз27735 0.0 1022128
02:00+7юз3107964 0.0 1021196
05:00+7зюз4118012 0.0 1020276
08:00+9зюз412715 0.0 1018441
11:00+14зюз485545 0.0 1017718
14:00+17зюз4645100 0.0 10161360
17:00+17зюз4644100 0.0 10141554
20:00+12юз2360100 0.0 101453